DW6794 Weather Reports


Display with metric or nautical units.
time (UTC)temp
F
wind
direction
speed
MPH
gust
MPH
rain 1hr
in
rain 24hr
in
rain mn
in
humidity
%
barometer
mb
20140902064356 66 252 0.0 0.0 0.00 0.00 0.00 82 1013.3
20140902062356 67 252 0.0 0.0 0.00 0.00 0.00 82 1013.3
20140902061356 67 252 0.0 0.0 0.00 0.00 0.00 81 1013.4
20140902055356 67 252 0.0 0.0 0.00 0.00 0.00 80 1013.5
20140902052358 68 252 0.0 0.0 0.00 0.00 0.00 80 1013.5
20140902051356 68 252 0.0 0.0 0.00 0.00 0.00 80 1013.7
20140902045356 69 252 0.0 0.0 0.00 0.00 0.00 80 1013.8
20140902044356 69 252 0.0 0.0 0.00 0.00 0.00 79 1013.8
20140902043356 69 252 0.0 0.0 0.00 0.00 0.00 79 1013.7
20140902042356 69 252 0.0 0.0 0.00 0.00 0.00 79 1013.8
20140902041356 69 252 0.0 0.0 0.00 0.00 0.00 78 1013.8
20140902040356 69 252 0.0 0.0 0.00 0.00 0.00 77 1014.0
20140902035357 70 252 0.0 0.0 0.00 0.01 0.00 76 1014.0
20140902034357 70 252 0.0 0.0 0.00 0.01 0.00 77 1014.1
20140902033356 70 252 0.0 0.0 0.00 0.01 0.00 76 1014.2
20140902032357 70 252 0.0 0.0 0.00 0.01 0.00 76 1014.1
20140902031357 71 252 0.0 0.0 0.00 0.01 0.00 74 1014.0
20140902030356 71 252 0.0 0.0 0.00 0.01 0.00 74 1013.9
20140902025357 71 252 0.0 0.0 0.00 0.01 0.00 75 1014.0
20140902023357 72 252 0.0 0.0 0.00 0.01 0.00 74 1013.9
20140902022357 72 252 0.0 0.0 0.00 0.01 0.00 74 1013.8
20140902021357 73 252 0.0 0.0 0.00 0.01 0.00 73 1013.8
20140902020358 73 252 0.0 0.0 0.00 0.01 0.00 71 1013.8
20140902015357 74 252 0.0 0.0 0.00 0.01 0.00 70 1013.8
20140902014358 74 252 0.0 0.0 0.00 0.01 0.00 69 1013.7
20140902013357 74 252 0.0 0.0 0.00 0.01 0.00 68 1013.6
20140902012357 75 252 0.0 0.0 0.00 0.01 0.00 69 1013.3
20140902011357 76 252 0.0 0.0 0.00 0.01 0.00 68 1013.3
20140902004357 78 252 0.0 0.0 0.00 0.08 0.00 65 1013.3
20140902003358 79 251 0.0 0.0 0.00 0.08 0.00 62 1012.9
20140902002358 80 251 0.0 0.0 0.00 0.08 0.00 61 1012.8
20140902001358 81 251 0.0 0.0 0.00 0.08 0.00 60 1012.6
20140902000357 82 251 0.0 0.0 0.00 0.08 0.00 59 1012.6
20140901235357 83 251 0.0 0.0 0.00 0.08 0.00 58 1012.6
20140901234357 84 252 0.0 0.0 0.00 0.08 0.00 56 1012.5
20140901233358 85 251 0.0 0.0 0.00 0.08 0.00 56 1012.3
20140901232357 86 251 0.0 0.0 0.00 0.08 0.00 55 1012.1
20140901231358 87 251 0.0 0.0 0.00 0.08 0.00 54 1011.9
20140901230357 87 252 0.0 6.0 0.00 0.08 0.00 53 1012.0
20140901225357 88 241 0.0 7.0 0.00 0.08 0.00 53 1011.9
20140901224358 88 243 0.0 3.0 0.00 0.08 0.00 52 1011.9
20140901222357 88 231 1.0 9.0 0.00 0.08 0.00 51 1012.0
20140901221357 88 261 0.0 9.0 0.00 0.08 0.00 51 1012.0
20140901220358 88 246 3.0 9.0 0.00 0.08 0.00 51 1012.2
20140901215358 88 242 1.0 12.0 0.00 0.08 0.00 50 1012.1
20140901214358 89 255 6.0 12.0 0.00 0.08 0.00 50 1011.9
20140901213358 89 240 3.0 15.0 0.00 0.08 0.00 50 1012.0
20140901212358 89 259 3.0 10.0 0.00 0.08 0.00 52 1012.1
20140901211358 88 249 2.0 10.0 0.00 0.08 0.00 51 1012.0
20140901210357 88 227 3.0 12.0 0.00 0.08 0.00 52 1012.2
20140901205358 88 253 3.0 10.0 0.00 0.08 0.00 53 1012.2
20140901204358 88 246 1.0 10.0 0.00 0.08 0.00 53 1012.3
20140901203358 88 242 3.0 10.0 0.00 0.08 0.00 54 1012.4
20140901202358 88 245 3.0 14.0 0.00 0.08 0.00 53 1012.4
20140901201358 87 267 3.0 12.0 0.00 0.08 0.00 54 1012.6
20140901195358 87 244 5.0 13.0 0.00 0.08 0.00 55 1012.8
20140901194358 87 243 6.0 13.0 0.00 0.08 0.00 56 1012.9
20140901193358 87 220 4.0 10.0 0.00 0.08 0.00 56 1013.0
20140901191358 85 257 5.0 12.0 0.00 0.08 0.00 58 1013.4
20140901190358 85 220 3.0 12.0 0.00 0.08 0.00 59 1013.6
20140901185358 85 253 10.0 15.0 0.00 0.08 0.00 56 1014.1
20140901183358 85 209 5.0 13.0 0.00 0.08 0.00 63 1014.1
20140901182358 85 261 7.0 12.0 0.00 0.08 0.00 62 1014.3
20140901181359 84 263 6.0 13.0 0.00 0.08 0.00 64 1014.4
20140901180358 84 253 10.0 17.0 0.00 0.08 0.00 64 1014.6
20140901175359 84 242 4.0 12.0 0.00 0.08 0.00 67 1014.6
20140901174359 84 262 3.0 10.0 0.00 0.08 0.00 69 1014.6
20140901172359 83 196 1.0 9.0 0.00 0.08 0.00 70 1014.7
20140901170359 83 213 3.0 10.0 0.00 0.08 0.00 70 1015.0
20140901165359 82 262 4.0 8.0 0.00 0.08 0.00 70 1015.1
20140901164359 83 264 3.0 7.0 0.00 0.08 0.00 70 1015.1
20140901163359 83 260 3.0 7.0 0.00 0.08 0.00 71 1015.1
20140901162358 82 253 5.0 14.0 0.00 0.08 0.00 70 1015.2
20140901161359 81 232 1.0 15.0 0.00 0.08 0.00 72 1015.2
20140901160359 81 239 3.0 12.0 0.00 0.08 0.00 73 1015.3
20140901155359 81 234 5.0 12.0 0.00 0.08 0.00 75 1015.2
20140901154359 81 265 6.0 14.0 0.00 0.08 0.00 75 1015.3
20140901152359 79 257 4.0 9.0 0.00 0.08 0.00 81 1015.5
20140901151359 79 296 2.0 5.0 0.00 0.08 0.00 83 1015.6
20140901150358 78 335 0.0 0.0 0.00 0.08 0.00 84 1015.5
20140901145359 78 335 0.0 0.0 0.00 0.08 0.00 84 1015.4
20140901144359 77 213 0.0 0.0 0.00 0.08 0.00 85 1015.7
20140901143359 77 213 0.0 0.0 0.00 0.08 0.00 85 1015.5
20140901142359 76 213 0.0 0.0 0.00 0.08 0.00 86 1015.5
20140901141359 76 213 0.0 0.0 0.00 0.08 0.00 86 1015.5
20140901140359 75 213 0.0 0.0 0.00 0.08 0.00 87 1015.5
20140901135400 75 212 0.0 0.0 0.00 0.08 0.00 87 1015.4
20140901134359 74 212 0.0 0.0 0.00 0.08 0.00 88 1015.4
20140901133359 74 215 0.0 0.0 0.00 0.08 0.00 88 1015.4
20140901132359 73 215 0.0 0.0 0.00 0.08 0.00 88 1015.4
20140901130359 71 215 0.0 0.0 0.00 0.08 0.00 88 1015.6
20140901125359 71 215 0.0 0.0 0.00 0.08 0.00 88 1015.5
20140901124359 71 215 0.0 0.0 0.00 0.08 0.00 89 1015.6
20140901123359 70 215 0.0 0.0 0.00 0.08 0.00 88 1015.6
20140901122359 70 215 0.0 0.0 0.00 0.08 0.00 88 1015.6
20140901120359 69 215 0.0 0.0 0.00 0.08 0.00 88 1015.7
20140901115359 69 215 0.0 0.0 0.00 0.08 0.00 88 1015.6
20140901114359 68 215 0.0 0.0 0.00 0.08 0.00 88 1015.6
20140901113359 68 215 0.0 0.0 0.00 0.08 0.00 88 1015.6
20140901112400 68 215 0.0 0.0 0.00 0.08 0.00 88 1015.6
20140901111400 68 215 0.0 0.0 0.00 0.08 0.00 88 1015.5
20140901105359 69 215 0.0 0.0 0.00 0.08 0.00 88 1015.3
20140901103359 69 215 0.0 0.0 0.00 0.08 0.00 88 1015.3
20140901102400 70 215 0.0 0.0 0.00 0.08 0.00 88 1015.1
20140901101359 70 215 0.0 0.0 0.00 0.08 0.00 88 1015.1
20140901100359 70 215 0.0 0.0 0.00 0.08 0.00 87 1015.1
20140901095400 70 215 0.0 0.0 0.00 0.08 0.00 87 1015.1
20140901094400 70 215 0.0 0.0 0.00 0.08 0.00 86 1015.0
20140901093400 70 215 0.0 0.0 0.00 0.08 0.00 86 1014.8
20140901092400 70 215 0.0 0.0 0.00 0.08 0.00 86 1014.8
20140901090400 70 215 0.0 0.0 0.00 0.08 0.00 86 1014.8
20140901084400 70 215 0.0 0.0 0.00 0.08 0.00 86 1014.6
20140901081400 70 215 0.0 0.0 0.00 0.08 0.00 86 1014.6
20140901075400 70 215 0.0 0.0 0.00 0.09 0.00 86 1014.3
20140901074400 70 215 0.0 0.0 0.00 0.10 0.00 86 1014.3
20140901073401 70 215 0.0 0.0 0.00 0.10 0.00 86 1014.3
20140901072401 70 215 0.0 0.0 0.00 0.10 0.00 86 1014.5
20140901071400 70 215 0.0 0.0 0.00 0.10 0.00 86 1014.2
20140901070401 70 215 0.0 0.0 0.00 0.10 0.00 86 1014.2
20140901065400 70 215 0.0 0.0 0.00 0.12 0.00 86 1014.3